When you browse on this site, cookies collect data to enhance your experience and personalize the content and advertising you see.
Visit our Privacy Policy to learn more. By continuing to use the site, you agree to this use of cookies and data.
  • In Hungary
  • List of Countries
  • For 7 days
  • Water Temperature
  • Satellite Maps
  • Weather Map
  • News
  • Weather Widgets
  • user-avatar
    Login

    Hourly Weather Langtou

    Today, 23 February, Saturday

    Time Temperature Precipitation Wind Pressure Humidity
    00:00 0°C° 0 mm 3 mps 767 mmHg 54%
    01:00 0°C° 0 mm 3 mps 768 mmHg 54%
    02:00 0°C° 0 mm 3 mps 768 mmHg 54%
    03:00 0°C° 0 mm 3 mps 768 mmHg 54%
    04:00 0°C° 0 mm 3 mps 768 mmHg 53%
    05:00 0°C° 0 mm 3 mps 768 mmHg 53%
    06:00 0°C° 0 mm 3 mps 768 mmHg 50%
    07:00 +1°C° 0 mm 3 mps 768 mmHg 47%
    08:00 +2°C° 0 mm 3 mps 769 mmHg 44%
    09:00 +4°C° 0 mm 4 mps 768 mmHg 39%
    10:00 +6°C° 0 mm 4 mps 768 mmHg 33%
    11:00 +8°C° 0 mm 5 mps 768 mmHg 28%
    12:00 +8°C° 0 mm 4 mps 768 mmHg 27%
    13:00 +10°C° 0 mm 3 mps 767 mmHg 26%
    14:00 +11°C° 0 mm 3 mps 767 mmHg 25%
    15:00 +10°C° 0 mm 2 mps 767 mmHg 29%
    16:00 +10°C° 0 mm 1 mps 767 mmHg 32%
    17:00 +9°C° 0 mm 1 mps 767 mmHg 36%
    18:00 +7°C° 0 mm 1 mps 767 mmHg 38%
    19:00 +6°C° 0 mm 1 mps 767 mmHg 40%
    20:00 +5°C° 0 mm 1 mps 767 mmHg 42%
    21:00 +5°C° 0 mm 1 mps 767 mmHg 43%
    22:00 +4°C° 0 mm 1 mps 767 mmHg 44%
    23:00 +4°C° 0 mm 1 mps 767 mmHg 45%

    Tomorrow, 24 February, Sunday

    Time Temperature Precipitation Wind Pressure Humidity
    00:00 +3°C° 0 mm 1 mps 767 mmHg 46%
    01:00 +3°C° 0 mm 1 mps 767 mmHg 47%
    02:00 +3°C° 0 mm 1 mps 767 mmHg 47%
    03:00 +3°C° 0 mm 1 mps 767 mmHg 48%
    04:00 +2°C° 0 mm 1 mps 767 mmHg 48%
    05:00 +2°C° 0 mm 1 mps 766 mmHg 49%
    06:00 +3°C° 0 mm 1 mps 766 mmHg 48%
    07:00 +4°C° 0 mm 1 mps 767 mmHg 46%
    08:00 +4°C° 0 mm 1 mps 767 mmHg 45%
    09:00 +5°C° 0 mm 2 mps 766 mmHg 41%
    10:00 +6°C° 0 mm 2 mps 766 mmHg 38%
    11:00 +7°C° 0 mm 3 mps 766 mmHg 34%
    12:00 +8°C° 0 mm 2 mps 765 mmHg 33%
    13:00 +9°C° 0 mm 2 mps 765 mmHg 33%
    14:00 +9°C° 0 mm 2 mps 764 mmHg 32%
    15:00 +8°C° 0 mm 2 mps 764 mmHg 35%
    16:00 +8°C° 0 mm 2 mps 764 mmHg 38%
    17:00 +7°C° 0 mm 3 mps 764 mmHg 42%
    18:00 +5°C° 0 mm 3 mps 765 mmHg 44%
    19:00 +4°C° 0 mm 3 mps 765 mmHg 46%
    20:00 +1°C° 0 mm 4 mps 766 mmHg 47%
    21:00 +1°C° 0 mm 4 mps 766 mmHg 49%
    22:00 +1°C° 0 mm 3 mps 766 mmHg 51%
    23:00 0°C° 0 mm 3 mps 766 mmHg 52%

    Day after tomorrow, 25 February, Monday

    Time Temperature Precipitation Wind Pressure Humidity
    00:00 0°C° 0 mm 3 mps 767 mmHg 52%
    01:00 0°C° 0 mm 3 mps 767 mmHg 53%
    02:00 -1°C° 0 mm 2 mps 767 mmHg 53%
    03:00 -1°C° 0 mm 2 mps 767 mmHg 51%
    04:00 -1°C° 0 mm 2 mps 767 mmHg 49%
    05:00 -1°C° 0 mm 2 mps 767 mmHg 47%
    06:00 0°C° 0 mm 3 mps 768 mmHg 44%
    07:00 0°C° 0 mm 3 mps 768 mmHg 41%
    08:00 0°C° 0 mm 4 mps 768 mmHg 37%
    09:00 +1°C° 0 mm 4 mps 768 mmHg 33%
    10:00 +3°C° 0 mm 4 mps 768 mmHg 30%
    11:00 +4°C° 0 mm 4 mps 768 mmHg 26%
    12:00 +5°C° 0 mm 4 mps 768 mmHg 25%
    13:00 +5°C° 0 mm 4 mps 768 mmHg 24%
    14:00 +6°C° 0 mm 4 mps 767 mmHg 24%
    15:00 +5°C° 0 mm 4 mps 767 mmHg 26%
    16:00 +5°C° 0 mm 4 mps 767 mmHg 28%
    17:00 +4°C° 0 mm 4 mps 767 mmHg 31%
    18:00 +3°C° 0 mm 4 mps 768 mmHg 34%
    19:00 +1°C° 0 mm 3 mps 768 mmHg 37%
    20:00 0°C° 0 mm 3 mps 768 mmHg 40%
    21:00 0°C° 0 mm 3 mps 769 mmHg 40%
    22:00 -1°C° 0 mm 3 mps 769 mmHg 40%
    23:00 -1°C° 0 mm 2 mps 769 mmHg 39%

    26 February, Tuesday

    Time Temperature Precipitation Wind Pressure Humidity
    00:00 -1°C° 0 mm 2 mps 769 mmHg 39%
    01:00 -1°C° 0 mm 2 mps 769 mmHg 39%
    02:00 -1°C° 0 mm 2 mps 769 mmHg 38%
    03:00 -1°C° 0 mm 2 mps 769 mmHg 38%
    04:00 -2°C° 0 mm 2 mps 769 mmHg 38%
    05:00 -2°C° 0 mm 2 mps 769 mmHg 38%
    06:00 +1°C° 0 mm 1 mps 769 mmHg 36%
    07:00 +2°C° 0 mm 1 mps 770 mmHg 35%
    08:00 +2°C° 0 mm 1 mps 770 mmHg 33%
    09:00 +3°C° 0 mm 2 mps 770 mmHg 30%
    10:00 +5°C° 0 mm 2 mps 770 mmHg 28%
    11:00 +7°C° 0 mm 2 mps 770 mmHg 26%
    12:00 +7°C° 0 mm 2 mps 769 mmHg 25%
    13:00 +8°C° 0 mm 3 mps 769 mmHg 25%
    14:00 +9°C° 0 mm 3 mps 769 mmHg 25%
    15:00 +8°C° 0 mm 2 mps 769 mmHg 28%
    16:00 +7°C° 0 mm 2 mps 768 mmHg 30%
    17:00 +7°C° 0 mm 2 mps 768 mmHg 33%
    18:00 +5°C° 0 mm 2 mps 769 mmHg 36%
    19:00 +4°C° 0 mm 2 mps 769 mmHg 40%
    20:00 +3°C° 0 mm 2 mps 769 mmHg 43%
    21:00 +2°C° 0 mm 2 mps 770 mmHg 44%
    22:00 +2°C° 0 mm 2 mps 770 mmHg 45%
    23:00 +1°C° 0 mm 2 mps 770 mmHg 46%

    27 February, Wednesday

    Time Temperature Precipitation Wind Pressure Humidity
    00:00 +1°C° 0 mm 2 mps 770 mmHg 47%
    01:00 +1°C° 0 mm 2 mps 770 mmHg 47%
    02:00 +1°C° 0 mm 2 mps 769 mmHg 48%
    03:00 -1°C° 0 mm 2 mps 769 mmHg 47%
    04:00 -1°C° 0 mm 2 mps 769 mmHg 47%
    05:00 +1°C° 0 mm 1 mps 769 mmHg 46%
    06:00 +2°C° 0 mm 1 mps 769 mmHg 44%
    07:00 +3°C° 0 mm 1 mps 769 mmHg 41%
    08:00 +4°C° 0 mm 1 mps 769 mmHg 38%
    09:00 +5°C° 0 mm 1 mps 769 mmHg 35%
    10:00 +6°C° 0 mm 1 mps 768 mmHg 31%
    11:00 +7°C° 0 mm 2 mps 768 mmHg 28%
    12:00 +7°C° 0 mm 2 mps 768 mmHg 29%
    13:00 +7°C° 0 mm 2 mps 767 mmHg 29%
    14:00 +7°C° 0 mm 2 mps 767 mmHg 30%
    15:00 +7°C° 0 mm 2 mps 767 mmHg 33%
    16:00 +6°C° 0 mm 2 mps 767 mmHg 36%
    17:00 +7°C° 0 mm 1 mps 766 mmHg 38%
    18:00 +6°C° 0 mm 1 mps 766 mmHg 41%
    19:00 +5°C° 0 mm 1 mps 767 mmHg 43%
    20:00 +4°C° 0 mm 1 mps 767 mmHg 46%
    21:00 +3°C° 0 mm 1 mps 766 mmHg 47%
    22:00 +3°C° 0 mm 1 mps 766 mmHg 48%
    23:00 +2°C° 0 mm 1 mps 766 mmHg 49%

    28 February, Thursday

    Time Temperature Precipitation Wind Pressure Humidity
    00:00 +1°C° 0 mm 0 mps 766 mmHg 50%
    01:00 +1°C° 0 mm 0 mps 766 mmHg 50%
    02:00 +1°C° 0 mm 0 mps 766 mmHg 51%
    03:00 +1°C° 0 mm 0 mps 766 mmHg 51%
    04:00 +1°C° 0 mm 0 mps 766 mmHg 52%
    05:00 +1°C° 0 mm 0 mps 766 mmHg 52%
    06:00 +2°C° 0 mm 0 mps 766 mmHg 49%
    07:00 +3°C° 0 mm 1 mps 766 mmHg 47%
    08:00 +4°C° 0 mm 1 mps 766 mmHg 44%
    09:00 +6°C° 0 mm 1 mps 765 mmHg 42%
    10:00 +6°C° 0 mm 2 mps 765 mmHg 39%
    11:00 +7°C° 0 mm 2 mps 765 mmHg 36%
    12:00 +8°C° 0 mm 3 mps 765 mmHg 37%
    13:00 +9°C° 0 mm 3 mps 764 mmHg 37%
    14:00 +9°C° 0 mm 3 mps 764 mmHg 37%
    15:00 +8°C° 0 mm 3 mps 764 mmHg 41%
    16:00 +7°C° 0 mm 3 mps 764 mmHg 44%
    17:00 +6°C° 0 mm 2 mps 764 mmHg 48%
    18:00 +5°C° 0 mm 2 mps 765 mmHg 52%
    19:00 +5°C° 0 mm 1 mps 765 mmHg 56%
    20:00 +4°C° 0 mm 1 mps 765 mmHg 60%
    21:00 +4°C° 0 mm 1 mps 765 mmHg 62%
    22:00 +3°C° 0 mm 1 mps 765 mmHg 64%
    23:00 +2°C° 0 mm 0 mps 766 mmHg 66%
    Show more